Time,TemperatureF,DewpointF,PressureIn,WindDirection,WindDirectionDegrees,WindSpeedMPH,WindSpeedGustMPH,Humidity,HourlyPrecipIn,Conditions,Clouds,dailyrainin,SoftwareType,DateUTC
2013-08-07 00:01:00,83.0,72.0,29.97,NE,36,0.0,0.0,69,0.00,,,0.00,,2013-08-07 04:01:00,
2013-08-07 00:21:00,82.0,71.0,29.97,NE,35,0.0,0.0,69,0.00,,,0.00,,2013-08-07 04:21:00,
2013-08-07 00:33:00,82.0,71.0,29.97,NE,35,0.0,0.0,69,0.00,,,0.00,,2013-08-07 04:33:00,
2013-08-07 00:43:00,83.0,72.0,29.97,NE,35,0.0,0.0,69,0.00,,,0.00,,2013-08-07 04:43:00,
2013-08-07 01:02:00,82.0,72.0,29.94,East,85,0.0,0.0,71,0.00,,,0.00,,2013-08-07 05:02:00,
2013-08-07 01:11:00,82.0,72.0,29.94,East,85,0.0,0.0,71,0.00,,,0.00,,2013-08-07 05:11:00,
2013-08-07 01:32:00,82.0,72.0,29.94,NNE,30,0.0,0.0,72,0.00,,,0.00,,2013-08-07 05:32:00,
2013-08-07 01:43:00,82.0,72.0,29.94,NE,35,0.0,0.0,72,0.00,,,0.00,,2013-08-07 05:43:00,
2013-08-07 01:52:00,82.0,72.0,29.94,NE,35,0.0,0.0,72,0.00,,,0.00,,2013-08-07 05:52:00,
2013-08-07 02:02:00,82.0,72.0,29.94,NE,35,0.0,0.0,72,0.00,,,0.00,,2013-08-07 06:02:00,
2013-08-07 02:11:00,82.0,72.0,29.94,NE,35,0.0,0.0,72,0.00,,,0.00,,2013-08-07 06:11:00,
2013-08-07 02:22:00,81.0,72.0,29.94,NE,35,0.0,0.0,73,0.00,,,0.00,,2013-08-07 06:22:00,
2013-08-07 02:32:00,81.0,72.0,29.94,NE,35,0.0,0.0,73,0.00,,,0.00,,2013-08-07 06:32:00,
2013-08-07 02:43:00,82.0,72.0,29.94,NE,35,0.0,0.0,73,0.00,,,0.00,,2013-08-07 06:43:00,
2013-08-07 02:52:00,81.0,72.0,29.91,NE,35,0.0,0.0,73,0.00,,,0.00,,2013-08-07 06:52:00,
2013-08-07 03:01:00,81.0,72.0,29.91,NE,35,0.0,0.0,73,0.00,,,0.00,,2013-08-07 07:01:00,
2013-08-07 03:12:00,81.0,72.0,29.91,NE,35,0.0,0.0,74,0.00,,,0.00,,2013-08-07 07:12:00,
2013-08-07 03:22:00,81.0,72.0,29.91,NE,35,0.0,0.0,74,0.00,,,0.00,,2013-08-07 07:22:00,
2013-08-07 03:33:00,81.0,72.0,29.91,NE,35,0.0,0.0,74,0.00,,,0.00,,2013-08-07 07:33:00,
2013-08-07 03:43:00,81.0,72.0,29.91,NE,35,0.0,0.0,74,0.00,,,0.00,,2013-08-07 07:43:00,
2013-08-07 03:52:00,81.0,72.0,29.91,NE,35,0.0,0.0,74,0.00,,,0.00,,2013-08-07 07:52:00,
2013-08-07 04:02:00,81.0,72.0,29.91,ENE,70,0.0,0.0,74,0.00,,,0.00,,2013-08-07 08:02:00,
2013-08-07 04:11:00,81.0,72.0,29.91,ENE,70,0.0,0.0,74,0.00,,,0.00,,2013-08-07 08:11:00,
2013-08-07 04:22:00,81.0,72.0,29.91,ENE,70,0.0,0.0,75,0.00,,,0.00,,2013-08-07 08:22:00,
2013-08-07 04:32:00,81.0,72.0,29.91,ENE,70,0.0,0.0,75,0.00,,,0.00,,2013-08-07 08:32:00,
2013-08-07 04:44:00,81.0,72.0,29.91,ENE,60,0.0,0.0,75,0.00,,,0.00,,2013-08-07 08:44:00,
2013-08-07 05:02:00,81.0,72.0,29.91,NNE,20,0.0,0.0,75,0.00,,,0.00,,2013-08-07 09:02:00,
2013-08-07 05:32:00,81.0,72.0,29.91,ENE,70,0.0,0.0,75,0.00,,,0.00,,2013-08-07 09:32:00,
2013-08-07 05:43:00,80.0,72.0,29.91,ENE,70,0.0,0.0,76,0.00,,,0.00,,2013-08-07 09:43:00,
2013-08-07 06:11:00,80.0,72.0,29.94,SE,140,0.0,0.0,77,0.00,,,0.00,,2013-08-07 10:11:00,
2013-08-07 06:22:00,80.0,72.0,29.94,ESE,110,0.0,0.0,77,0.00,,,0.00,,2013-08-07 10:22:00,
2013-08-07 06:32:00,80.0,72.0,29.94,East,85,0.0,0.0,76,0.00,,,0.00,,2013-08-07 10:32:00,
2013-08-07 06:43:00,80.0,72.0,29.94,ENE,70,0.0,0.0,76,0.00,,,0.00,,2013-08-07 10:43:00,
2013-08-07 07:32:00,81.0,72.0,29.94,East,80,0.0,0.0,74,0.00,,,0.00,,2013-08-07 11:32:00,
2013-08-07 07:52:00,81.0,72.0,29.94,NE,35,0.0,0.0,74,0.00,,,0.00,,2013-08-07 11:52:00,
2013-08-07 08:02:00,81.0,72.0,29.94,East,80,0.0,0.0,74,0.00,,,0.00,,2013-08-07 12:02:00,
2013-08-07 08:32:00,84.0,72.0,29.94,NE,50,1.0,3.0,67,0.00,,,0.00,,2013-08-07 12:32:00,
2013-08-07 08:43:00,84.0,71.0,29.94,ENE,60,1.0,2.0,65,0.00,,,0.00,,2013-08-07 12:43:00,
2013-08-07 08:52:00,84.0,71.0,29.94,ENE,60,1.0,2.0,65,0.00,,,0.00,,2013-08-07 12:52:00,
2013-08-07 09:02:00,84.0,70.0,29.97,NE,35,1.0,0.0,64,0.00,,,0.00,,2013-08-07 13:02:00,
2013-08-07 09:11:00,84.0,70.0,29.97,NE,35,1.0,0.0,64,0.00,,,0.00,,2013-08-07 13:11:00,
2013-08-07 09:22:00,85.0,71.0,29.97,NE,35,0.0,0.0,63,0.00,,,0.00,,2013-08-07 13:22:00,
2013-08-07 09:32:00,85.0,70.0,29.97,NE,45,1.0,5.0,62,0.00,,,0.00,,2013-08-07 13:32:00,
2013-08-07 09:44:00,86.0,71.0,29.97,NE,45,3.0,5.0,61,0.00,,,0.00,,2013-08-07 13:44:00,
2013-08-07 10:02:00,86.0,70.0,29.97,ENE,70,5.0,6.0,59,0.00,,,0.00,,2013-08-07 14:02:00,
2013-08-07 10:12:00,86.0,70.0,29.97,ENE,70,5.0,5.0,60,0.00,,,0.00,,2013-08-07 14:12:00,
2013-08-07 10:22:00,87.0,71.0,29.97,ENE,70,5.0,5.0,60,0.00,,,0.00,,2013-08-07 14:22:00,
2013-08-07 10:33:00,87.0,70.0,29.97,ENE,70,5.0,5.0,58,0.00,,,0.00,,2013-08-07 14:33:00,
2013-08-07 10:43:00,87.0,70.0,29.97,ENE,65,5.0,6.0,58,0.00,,,0.00,,2013-08-07 14:43:00,
2013-08-07 10:52:00,88.0,71.0,29.97,ENE,75,6.0,7.0,57,0.00,,,0.00,,2013-08-07 14:52:00,
2013-08-07 11:02:00,88.0,70.0,29.97,ENE,60,6.0,7.0,56,0.00,,,0.00,,2013-08-07 15:02:00,
2013-08-07 11:12:00,88.0,70.0,29.97,ENE,60,5.0,5.0,56,0.00,,,0.00,,2013-08-07 15:12:00,
2013-08-07 11:22:00,88.0,70.0,29.97,ENE,70,3.0,8.0,56,0.00,,,0.00,,2013-08-07 15:22:00,
2013-08-07 11:33:00,89.0,71.0,29.97,ENE,70,7.0,8.0,56,0.00,,,0.00,,2013-08-07 15:33:00,
2013-08-07 11:53:00,89.0,71.0,29.97,ENE,70,8.0,8.0,56,0.00,,,0.00,,2013-08-07 15:53:00,
2013-08-07 12:02:00,88.0,70.0,29.97,ENE,70,8.0,8.0,56,0.00,,,0.00,,2013-08-07 16:02:00,
2013-08-07 12:33:00,89.0,71.0,29.97,East,80,9.0,10.0,56,0.00,,,0.00,,2013-08-07 16:33:00,
2013-08-07 12:43:00,88.0,69.0,29.97,NE,55,9.0,10.0,54,0.00,,,0.00,,2013-08-07 16:43:00,
2013-08-07 13:11:00,90.0,71.0,29.97,ENE,70,7.0,9.0,53,0.00,,,0.00,,2013-08-07 17:11:00,
2013-08-07 13:22:00,91.0,71.0,29.97,East,85,6.0,6.0,52,0.00,,,0.00,,2013-08-07 17:22:00,
2013-08-07 13:33:00,90.0,70.0,29.97,East,80,3.0,6.0,52,0.00,,,0.00,,2013-08-07 17:33:00,
2013-08-07 13:43:00,89.0,70.0,29.97,ENE,60,9.0,10.0,54,0.00,,,0.00,,2013-08-07 17:43:00,
2013-08-07 14:02:00,90.0,71.0,29.97,NE,45,10.0,12.0,54,0.00,,,0.00,,2013-08-07 18:02:00,
2013-08-07 14:11:00,90.0,71.0,29.97,NE,45,10.0,12.0,54,0.00,,,0.00,,2013-08-07 18:11:00,
2013-08-07 14:43:00,90.0,70.0,29.97,East,95,6.0,8.0,52,0.00,,,0.00,,2013-08-07 18:43:00,
2013-08-07 14:52:00,90.0,70.0,29.97,East,95,6.0,8.0,52,0.00,,,0.00,,2013-08-07 18:52:00,
2013-08-07 15:01:00,91.0,71.0,29.97,NE,55,6.0,8.0,52,0.00,,,0.00,,2013-08-07 19:01:00,
2013-08-07 15:11:00,91.0,71.0,29.97,ENE,70,7.0,8.0,52,0.00,,,0.00,,2013-08-07 19:11:00,
2013-08-07 15:32:00,90.0,70.0,29.97,ENE,67,7.0,10.0,52,0.00,,,0.00,,2013-08-07 19:32:00,
2013-08-07 15:52:00,89.0,70.0,29.94,East,90,9.0,9.0,53,0.00,,,0.00,,2013-08-07 19:52:00,
2013-08-07 16:02:00,91.0,71.0,29.94,East,85,6.0,7.0,52,0.00,,,0.00,,2013-08-07 20:02:00,
2013-08-07 16:11:00,91.0,71.0,29.94,East,80,6.0,8.0,53,0.00,,,0.00,,2013-08-07 20:11:00,
2013-08-07 16:32:00,90.0,71.0,29.94,East,80,6.0,10.0,54,0.00,,,0.00,,2013-08-07 20:32:00,
2013-08-07 16:43:00,91.0,72.0,29.94,ENE,70,6.0,8.0,54,0.00,,,0.00,,2013-08-07 20:43:00,
2013-08-07 16:52:00,91.0,72.0,29.94,ENE,70,6.0,8.0,54,0.00,,,0.00,,2013-08-07 20:52:00,
2013-08-07 17:22:00,90.0,71.0,29.94,East,85,7.0,8.0,53,0.00,,,0.00,,2013-08-07 21:22:00,
2013-08-07 17:32:00,89.0,71.0,29.94,East,80,6.0,6.0,56,0.00,,,0.00,,2013-08-07 21:32:00,
2013-08-07 17:43:00,89.0,71.0,29.94,NE,55,5.0,9.0,55,0.00,,,0.00,,2013-08-07 21:43:00,
2013-08-07 17:52:00,89.0,71.0,29.94,NE,55,5.0,9.0,55,0.00,,,0.00,,2013-08-07 21:52:00,
2013-08-07 18:01:00,88.0,70.0,29.91,ENE,60,5.0,8.0,55,0.00,,,0.00,,2013-08-07 22:01:00,
2013-08-07 18:12:00,89.0,71.0,29.91,East,85,5.0,7.0,55,0.00,,,0.00,,2013-08-07 22:12:00,
2013-08-07 18:22:00,89.0,71.0,29.91,ENE,60,6.0,13.0,55,0.00,,,0.00,,2013-08-07 22:22:00,
2013-08-07 18:52:00,87.0,70.0,29.91,ENE,70,7.0,12.0,58,0.00,,,0.00,,2013-08-07 22:52:00,
2013-08-07 19:11:00,86.0,71.0,29.94,ENE,70,6.0,7.0,61,0.00,,,0.00,,2013-08-07 23:11:00,
2013-08-07 19:32:00,86.0,72.0,29.94,ENE,70,7.0,9.0,63,0.00,,,0.00,,2013-08-07 23:32:00,
2013-08-07 19:43:00,85.0,71.0,29.94,ENE,60,8.0,10.0,63,0.00,,,0.00,,2013-08-07 23:43:00,
2013-08-07 19:52:00,85.0,71.0,29.94,ENE,75,7.0,10.0,64,0.00,,,0.00,,2013-08-07 23:52:00,
2013-08-07 20:01:00,84.0,71.0,29.94,ENE,60,6.0,8.0,65,0.00,,,0.00,,2013-08-08 00:01:00,
2013-08-07 20:11:00,84.0,71.0,29.94,ENE,60,3.0,10.0,65,0.00,,,0.00,,2013-08-08 00:11:00,
2013-08-07 20:22:00,84.0,71.0,29.94,ENE,73,5.0,10.0,66,0.00,,,0.00,,2013-08-08 00:22:00,
2013-08-07 20:32:00,84.0,71.0,29.94,ENE,73,5.0,10.0,66,0.00,,,0.00,,2013-08-08 00:32:00,
2013-08-07 20:42:00,84.0,72.0,29.94,ENE,70,6.0,7.0,67,0.00,,,0.00,,2013-08-08 00:42:00,
2013-08-07 20:52:00,84.0,72.0,29.94,NE,50,3.0,3.0,67,0.00,,,0.00,,2013-08-08 00:52:00,
2013-08-07 21:02:00,84.0,72.0,29.94,East,80,1.0,2.0,67,0.00,,,0.00,,2013-08-08 01:02:00,
2013-08-07 21:11:00,83.0,71.0,29.94,East,90,0.0,0.0,68,0.00,,,0.00,,2013-08-08 01:11:00,
2013-08-07 21:32:00,83.0,71.0,29.94,ENE,70,0.0,2.0,68,0.00,,,0.00,,2013-08-08 01:32:00,
2013-08-07 21:43:00,83.0,72.0,29.94,NE,40,0.0,0.0,69,0.00,,,0.00,,2013-08-08 01:43:00,
2013-08-07 21:52:00,83.0,72.0,29.94,NE,40,0.0,0.0,69,0.00,,,0.00,,2013-08-08 01:52:00,
2013-08-07 22:02:00,83.0,72.0,29.94,ENE,65,0.0,0.0,70,0.00,,,0.00,,2013-08-08 02:02:00,
2013-08-07 22:22:00,83.0,72.0,29.94,ENE,60,0.0,0.0,70,0.00,,,0.00,,2013-08-08 02:22:00,
2013-08-07 22:52:00,83.0,73.0,29.97,NE,55,2.0,2.0,71,0.00,,,0.00,,2013-08-08 02:52:00,
2013-08-07 23:02:00,83.0,73.0,29.97,ENE,65,1.0,5.0,71,0.00,,,0.00,,2013-08-08 03:02:00,
2013-08-07 23:12:00,83.0,73.0,29.97,ENE,70,1.0,3.0,72,0.00,,,0.00,,2013-08-08 03:12:00,
2013-08-07 23:22:00,83.0,73.0,29.97,NE,55,2.0,5.0,72,0.00,,,0.00,,2013-08-08 03:22:00,
2013-08-07 23:32:00,83.0,73.0,29.97,ENE,65,2.0,6.0,72,0.00,,,0.00,,2013-08-08 03:32:00,
2013-08-07 23:43:00,83.0,73.0,29.97,North,5,2.0,2.0,72,0.00,,,0.00,,2013-08-08 03:43:00,
2013-08-07 23:52:00,83.0,73.0,29.97,North,5,0.0,0.0,72,0.00,,,0.00,,2013-08-08 03:52:00,